Miscellaneous Local Product
Issued by NWS North Platte, NE

Home | Current Version | Previous Version | Graphics & Text | Print | Product List | Glossary On
Versions: 1 2 3 4 5 6 7 8 9 10 11 12 13 14 15 16 17 18 19 20 21 22 23 24 25 26 27 28 29 30 31 32 33 34 35 36 37 38 39 40 41 42 43 44 45 46 47 48 49 50
000
AXUS43 KLBF 040410
MISLBF


WESTERN AND NORTH CENTRAL NEBRASKA HOURLY WEATHER ROUNDUP
NATIONAL WEATHER SERVICE NORTH PLATTE NE
1100 PM CDT TUE MAY 03 2016

NOTE: "FAIR" INDICATES FEW OR NO CLOUDS BELOW 12,000 FEET WITH NO
SIGNIFICANT WEATHER AND/OR OBSTRUCTIONS TO VISIBILITY.

NOTE: STATIONS NOT REPORTING VARIABLES SUCH AS SKY/WEATHER OR
PRESSURE ARE PROVIDED BY RAWS AND APRS NETWORKS AND ARE NOT UNDER
NATIONAL WEATHER SERVICE QUALITY CONTROL.

...OBSERVATIONS IN AND NEAR THE EASTERN PANHANDLE OF NEBRASKA...

CITY           SKY/WX    TMP DP  RH WIND       PRES   REMARKS
PINE RIDGE     CLEAR     48  38  68 CALM      30.11R
CHADRON        CLEAR     50  43  77 SW5       30.13R
ALLIANCE       CLEAR     49  40  71 N3        30.14R
SIDNEY         CLEAR     41  35  79 W7        30.17R
CRESCENT LAKE    N/A     54  39  57 N3          N/A
BIG SPRINGS      N/A     52  40  64 CALM        N/A
$$

...OBSERVATIONS IN NORTHERN NEBRASKA AND FAR SOUTHERN SOUTH DAKOTA...

CITY           SKY/WX    TMP DP  RH WIND       PRES   REMARKS
WINNER         FAIR      58  43  57 NW5       30.01R
VALENTINE      CLEAR     53  42  66 W9        30.04R
THEDFORD       CLEAR     52  41  67 W8        30.07S
AINSWORTH      CLEAR     56  42  59 W9        30.02R
O`NEILL        CLEAR     57  44  60 NW9       29.97R
ORD            CLEAR     54  43  66 W10       29.97S
BROKEN BOW     CLEAR     53  41  63 NW7       30.02R
VALENTINE NWR    N/A     53  41  63 NW3         N/A
BUTTE            N/A     59  41  52 NW3         N/A
HALSEY           N/A     55  37  51 W5          N/A
CHAMBERS         N/A     59  44  56 N6          N/A
EWING            N/A     60  46  60 NW8         N/A
$$

...OBSERVATIONS IN SOUTHWEST NEBRASKA AND FAR NORTHEAST COLORADO...

CITY           SKY/WX    TMP DP  RH WIND       PRES   REMARKS
HOLYOKE        FAIR      46  37  71 NW5       30.14R
IMPERIAL       CLEAR     52  38  58 NW6       30.11R
OGALLALA       CLEAR     50  35  56 W3        30.11R
NORTH PLATTE   CLEAR     45  38  76 NW7       30.07R
MCCOOK         CLEAR     49  40  71 W9        30.06R
LEXINGTON      CLEAR     50  44  79 NW6       30.04R
PAXTON           N/A     56  40  55 CALM        N/A
STAPLETON        N/A     52  40  63 CALM        N/A
GOTHENBURG       N/A     59  39  47 W3          N/A
CALLAWAY         N/A     54  39  57 N6          N/A
$$

...OBSERVATIONS IN CENTRAL LINCOLN COUNTY AREA...

CITY           SKY/WX    TMP DP  RH WIND       PRES   REMARKS
N.P. AIRPORT   CLEAR     45  38  76 NW7       30.07R
N.P. DOWNTOWN    N/A     55  39  54 CALM        N/A
N.P. SOUTHEAST   N/A     56  37  48 CALM        N/A
N.P. HILLCREST   N/A     52  38  59 N5          N/A
$$

...SOME OBSERVATIONS FROM AROUND THE REGION...

CITY           SKY/WX    TMP DP  RH WIND       PRES   REMARKS
DENVER         CLEAR     55  33  43 W6        30.25R
LARAMIE        CLEAR     40  32  73 W5        30.31R
CHEYENNE       CLEAR     46  35  65 W8        30.26R
SCOTTSBLUFF    CLEAR     53  40  61 CALM      30.16R
RAPID CITY     CLEAR     53  41  63 NW12      30.10R
BISMARCK       CLEAR     52  30  43 E9        30.04R
PIERRE         CLEAR     54  41  61 N12       29.99R
SIOUX FALLS    CLEAR     52  33  48 N9        29.90R
OMAHA          MOCLDY    62  45  53 CALM      29.85F
GRAND ISLAND   CLEAR     54  44  69 W9        29.98S
KANSAS CITY    CLEAR     54  43  66 SW7       29.92F
WICHITA        PTCLDY    58  45  62 NW8       30.01R
OKLAHOMA CITY  CLEAR     53  48  83 S6        30.05R
DALLAS         CLOUDY    67  46  47 W5        30.05R
AMARILLO       CLEAR     53  36  52 N5        30.17R
DODGE CITY     CLEAR     49  42  77 NW6       30.10S
HAYS           CLEAR     52  39  62 W5        30.05S
GOODLAND       CLEAR     46  37  71 W8        30.13R
$$




USA.gov is the U.S. government's official web portal to all federal, state and local government web resources and services.